• In Hungary
  • List of Countries
  • For 7 days
  • Water Temperature
  • Satellite Maps
  • Weather Map
  • News
  • Weather Widgets
  • user-avatar
    Login

    Hourly Weather Albany

    Today, 16 December, Saturday

    Time Temperature Precipitation Wind Pressure Humidity
    00:00 +18°C° 0 mm 1 mps 754 mmHg 89%
    01:00 +18°C° 0 mm 1 mps 754 mmHg 90%
    02:00 +17°C° 0 mm 2 mps 753 mmHg 88%
    03:00 +16°C° 0 mm 2 mps 753 mmHg 89%
    04:00 +16°C° 0 mm 2 mps 753 mmHg 89%
    05:00 +16°C° 0 mm 2 mps 753 mmHg 90%
    06:00 +18°C° 0 mm 2 mps 753 mmHg 80%
    07:00 +20°C° 0 mm 2 mps 753 mmHg 71%
    08:00 +23°C° 0 mm 2 mps 753 mmHg 61%
    09:00 +25°C° 0 mm 2 mps 752 mmHg 54%
    10:00 +27°C° 0 mm 2 mps 751 mmHg 46%
    11:00 +29°C° 0 mm 2 mps 751 mmHg 39%
    12:00 +29°C° 0 mm 2 mps 750 mmHg 40%
    13:00 +29°C° 0 mm 3 mps 749 mmHg 40%
    14:00 +29°C° 0 mm 4 mps 749 mmHg 41%
    15:00 +27°C° 0 mm 4 mps 748 mmHg 47%
    16:00 +26°C° 0 mm 4 mps 748 mmHg 54%
    17:00 +25°C° 0 mm 4 mps 747 mmHg 60%
    18:00 +22°C° 0 mm 4 mps 747 mmHg 67%
    19:00 +21°C° 0 mm 4 mps 747 mmHg 73%
    20:00 +19°C° 0 mm 4 mps 747 mmHg 79%
    21:00 +19°C° 0.1 mm 4 mps 747 mmHg 79%
    22:00 +19°C° 0.1 mm 4 mps 747 mmHg 79%
    23:00 +19°C° 0.1 mm 5 mps 747 mmHg 78%

    Tomorrow, 17 December, Sunday

    Time Temperature Precipitation Wind Pressure Humidity
    00:00 +19°C° 0.1 mm 5 mps 746 mmHg 78%
    01:00 +17°C° 0.1 mm 6 mps 746 mmHg 77%
    02:00 +17°C° 0.1 mm 7 mps 745 mmHg 76%
    03:00 +16°C° 0.2 mm 7 mps 745 mmHg 76%
    04:00 +15°C° 0.2 mm 7 mps 745 mmHg 76%
    05:00 +15°C° 0.2 mm 8 mps 745 mmHg 76%
    06:00 +15°C° 0.2 mm 8 mps 745 mmHg 69%
    07:00 +15°C° 0.2 mm 8 mps 745 mmHg 63%
    08:00 +15°C° 0.2 mm 8 mps 745 mmHg 57%
    09:00 +17°C° 0 mm 9 mps 745 mmHg 48%
    10:00 +19°C° 0 mm 9 mps 745 mmHg 40%
    11:00 +22°C° 0 mm 9 mps 744 mmHg 31%
    12:00 +21°C° 0 mm 9 mps 744 mmHg 33%
    13:00 +21°C° 0 mm 9 mps 743 mmHg 35%
    14:00 +21°C° 0 mm 9 mps 743 mmHg 37%
    15:00 +19°C° 0.2 mm 9 mps 742 mmHg 39%
    16:00 +19°C° 0.2 mm 9 mps 742 mmHg 41%
    17:00 +18°C° 0.2 mm 10 mps 742 mmHg 43%
    18:00 +17°C° 0.4 mm 9 mps 742 mmHg 52%
    19:00 +15°C° 0.4 mm 9 mps 742 mmHg 61%
    20:00 +13°C° 0.4 mm 9 mps 741 mmHg 71%
    21:00 +12°C° 0.1 mm 9 mps 741 mmHg 70%
    22:00 +12°C° 0.1 mm 9 mps 741 mmHg 69%
    23:00 +12°C° 0.1 mm 9 mps 741 mmHg 68%

    Day after tomorrow, 18 December, Monday

    Time Temperature Precipitation Wind Pressure Humidity
    00:00 +12°C° 0.2 mm 8 mps 740 mmHg 69%
    01:00 +12°C° 0.2 mm 8 mps 740 mmHg 70%
    02:00 +12°C° 0.2 mm 8 mps 739 mmHg 71%
    03:00 +12°C° 0.4 mm 8 mps 740 mmHg 72%
    04:00 +12°C° 0.4 mm 8 mps 740 mmHg 74%
    05:00 +12°C° 0.4 mm 7 mps 740 mmHg 76%
    06:00 +13°C° 0.5 mm 8 mps 741 mmHg 72%
    07:00 +15°C° 0.5 mm 8 mps 741 mmHg 68%
    08:00 +16°C° 0.5 mm 9 mps 742 mmHg 64%
    09:00 +17°C° 0.4 mm 9 mps 742 mmHg 61%
    10:00 +18°C° 0.4 mm 9 mps 743 mmHg 57%
    11:00 +19°C° 0.4 mm 9 mps 744 mmHg 54%
    12:00 +19°C° 0.1 mm 9 mps 744 mmHg 53%
    13:00 +21°C° 0.1 mm 10 mps 745 mmHg 52%
    14:00 +21°C° 0.1 mm 10 mps 746 mmHg 51%
    15:00 +21°C° 0.2 mm 10 mps 746 mmHg 55%
    16:00 +19°C° 0.2 mm 10 mps 747 mmHg 58%
    17:00 +19°C° 0.2 mm 9 mps 748 mmHg 62%
    18:00 +18°C° 0.2 mm 9 mps 748 mmHg 67%
    19:00 +17°C° 0.2 mm 8 mps 749 mmHg 72%
    20:00 +16°C° 0.2 mm 7 mps 750 mmHg 76%
    21:00 +16°C° 0.1 mm 7 mps 751 mmHg 78%
    22:00 +16°C° 0.1 mm 7 mps 751 mmHg 79%
    23:00 +15°C° 0.1 mm 6 mps 751 mmHg 80%

    19 December, Tuesday

    Time Temperature Precipitation Wind Pressure Humidity
    00:00 +16°C° 0.2 mm 7 mps 752 mmHg 80%
    01:00 +16°C° 0.2 mm 8 mps 752 mmHg 80%
    02:00 +16°C° 0.2 mm 8 mps 752 mmHg 80%
    03:00 +16°C° 0.2 mm 8 mps 753 mmHg 81%
    04:00 +16°C° 0.2 mm 8 mps 753 mmHg 81%
    05:00 +16°C° 0.2 mm 8 mps 754 mmHg 82%
    06:00 +16°C° 0.1 mm 8 mps 755 mmHg 78%
    07:00 +17°C° 0.1 mm 8 mps 755 mmHg 74%
    08:00 +17°C° 0.1 mm 8 mps 756 mmHg 70%
    09:00 +18°C° 0 mm 7 mps 757 mmHg 66%
    10:00 +18°C° 0 mm 7 mps 757 mmHg 62%
    11:00 +20°C° 0 mm 6 mps 758 mmHg 57%
    12:00 +20°C° 0 mm 6 mps 758 mmHg 56%
    13:00 +21°C° 0 mm 6 mps 758 mmHg 54%
    14:00 +21°C° 0 mm 6 mps 758 mmHg 52%
    15:00 +20°C° 0 mm 5 mps 758 mmHg 55%
    16:00 +20°C° 0 mm 5 mps 759 mmHg 58%
    17:00 +19°C° 0 mm 5 mps 759 mmHg 61%
    18:00 +18°C° 0 mm 4 mps 760 mmHg 65%
    19:00 +17°C° 0 mm 4 mps 760 mmHg 69%
    20:00 +16°C° 0 mm 3 mps 761 mmHg 72%
    21:00 +14°C° 0 mm 3 mps 761 mmHg 75%
    22:00 +15°C° 0 mm 2 mps 761 mmHg 78%
    23:00 +14°C° 0 mm 2 mps 762 mmHg 80%

    20 December, Wednesday

    Time Temperature Precipitation Wind Pressure Humidity
    00:00 +14°C° 0 mm 1 mps 761 mmHg 82%
    01:00 +14°C° 0 mm 1 mps 761 mmHg 83%
    02:00 +13°C° 0 mm 1 mps 761 mmHg 85%
    03:00 +13°C° 0 mm 1 mps 761 mmHg 86%
    04:00 +13°C° 0 mm 1 mps 761 mmHg 87%
    05:00 +13°C° 0 mm 1 mps 761 mmHg 88%
    06:00 +15°C° 0 mm 1 mps 762 mmHg 78%
    07:00 +18°C° 0 mm 1 mps 762 mmHg 68%
    08:00 +20°C° 0 mm 1 mps 762 mmHg 59%
    09:00 +21°C° 0 mm 2 mps 762 mmHg 53%
    10:00 +23°C° 0 mm 2 mps 762 mmHg 47%
    11:00 +25°C° 0 mm 2 mps 762 mmHg 41%
    12:00 +25°C° 0 mm 3 mps 761 mmHg 41%
    13:00 +26°C° 0 mm 3 mps 761 mmHg 42%
    14:00 +26°C° 0 mm 4 mps 760 mmHg 42%
    15:00 +25°C° 0 mm 4 mps 760 mmHg 46%
    16:00 +25°C° 0 mm 5 mps 760 mmHg 49%
    17:00 +23°C° 0 mm 5 mps 760 mmHg 53%
    18:00 +21°C° 0 mm 5 mps 760 mmHg 58%
    19:00 +20°C° 0 mm 5 mps 760 mmHg 63%
    20:00 +18°C° 0 mm 4 mps 761 mmHg 68%
    21:00 +17°C° 0 mm 4 mps 761 mmHg 70%
    22:00 +17°C° 0 mm 4 mps 761 mmHg 73%
    23:00 +15°C° 0 mm 4 mps 761 mmHg 75%

    21 December, Thursday

    Time Temperature Precipitation Wind Pressure Humidity
    00:00 +15°C° 0 mm 4 mps 760 mmHg 77%
    01:00 +15°C° 0 mm 4 mps 760 mmHg 79%
    02:00 +14°C° 0 mm 4 mps 759 mmHg 80%
    03:00 +14°C° 0 mm 4 mps 759 mmHg 81%
    04:00 +14°C° 0 mm 4 mps 759 mmHg 82%
    05:00 +14°C° 0 mm 4 mps 759 mmHg 83%
    06:00 +18°C° 0 mm 4 mps 759 mmHg 71%
    07:00 +20°C° 0 mm 4 mps 758 mmHg 60%
    08:00 +23°C° 0 mm 4 mps 758 mmHg 48%
    09:00 +26°C° 0 mm 4 mps 758 mmHg 42%
    10:00 +29°C° 0 mm 4 mps 757 mmHg 35%
    11:00 +32°C° 0 mm 5 mps 757 mmHg 28%
    12:00 +33°C° 0 mm 5 mps 756 mmHg 27%
    13:00 +34°C° 0 mm 5 mps 755 mmHg 26%
    14:00 +35°C° 0 mm 5 mps 754 mmHg 25%
    15:00 +34°C° 0 mm 5 mps 754 mmHg 30%
    16:00 +33°C° 0 mm 5 mps 753 mmHg 35%
    17:00 +30°C° 0 mm 5 mps 753 mmHg 39%
    18:00 +28°C° 0 mm 5 mps 753 mmHg 49%
    19:00 +25°C° 0 mm 4 mps 753 mmHg 60%
    20:00 +21°C° 0 mm 3 mps 754 mmHg 70%
    21:00 +21°C° 0 mm 3 mps 753 mmHg 73%
    22:00 +20°C° 0 mm 3 mps 753 mmHg 77%
    23:00 +19°C° 0 mm 3 mps 753 mmHg 81%
    Show more